�������l�o���
Date,Time,MP-1(��Sv/h),MP-2(��Sv/h),MP-3(��Sv/h),MP-4(��Sv/h),MP-5(��Sv/h),MP-6(��Sv/h),MP-7(��Sv/h),MP-8(��Sv/h),����,����(m/s),���J
2020/10/13,00:00,0.644,0.908,0.580,1.105,0.779,0.379,0.652,0.620,�k�k��,2.3,��
2020/10/13,00:10,0.644,0.905,0.578,1.107,0.778,0.379,0.652,0.620,�k��,4.0,��
2020/10/13,00:20,0.644,0.906,0.579,1.106,0.780,0.379,0.653,0.617,�k��,4.5,��
2020/10/13,00:30,0.643,0.904,0.578,1.104,0.781,0.380,0.654,0.619,�k��,5.2,��
2020/10/13,00:40,0.644,0.907,0.579,1.105,0.779,0.380,0.654,0.619,�k��,5.0,��
2020/10/13,00:50,0.642,0.906,0.582,1.106,0.780,0.380,0.652,0.621,�k��,4.0,��
2020/10/13,01:00,0.643,0.908,0.580,1.106,0.780,0.380,0.653,0.619,���k��,4.4,��
2020/10/13,01:10,0.642,0.904,0.578,1.107,0.779,0.379,0.654,0.620,�k��,3.9,��
2020/10/13,01:20,0.644,0.906,0.579,1.107,0.779,0.378,0.652,0.618,�k��,4.5,��
2020/10/13,01:30,0.643,0.904,0.579,1.108,0.781,0.380,0.651,0.620,���k��,4.0,��
2020/10/13,01:40,0.644,0.905,0.579,1.106,0.780,0.380,0.654,0.619,�k��,3.9,��
2020/10/13,01:50,0.642,0.904,0.580,1.108,0.779,0.380,0.651,0.619,���k��,4.4,��
2020/10/13,02:00,0.642,0.907,0.579,1.105,0.779,0.381,0.651,0.617,���k��,5.8,��
2020/10/13,02:10,0.643,0.904,0.579,1.108,0.779,0.379,0.652,0.618,�k��,6.5,��
2020/10/13,02:20,0.643,0.905,0.578,1.107,0.778,0.380,0.653,0.618,�k��,6.2,��
2020/10/13,02:30,0.644,0.907,0.579,1.107,0.779,0.380,0.652,0.619,�k��,4.6,��
2020/10/13,02:40,0.641,0.905,0.581,1.106,0.778,0.380,0.653,0.619,�k��,3.3,��
2020/10/13,02:50,0.643,0.906,0.581,1.108,0.780,0.380,0.651,0.620,�k��,2.5,��
2020/10/13,03:00,0.644,0.907,0.580,1.108,0.779,0.378,0.652,0.619,�k,3.1,��
2020/10/13,03:10,0.643,0.905,0.578,1.110,0.779,0.379,0.651,0.620,�k,2.6,��
2020/10/13,03:20,0.644,0.905,0.580,1.109,0.782,0.380,0.651,0.619,�k,2.5,��
2020/10/13,03:30,0.642,0.907,0.579,1.105,0.780,0.378,0.652,0.619,�k,2.9,��
2020/10/13,03:40,0.644,0.906,0.580,1.108,0.782,0.379,0.652,0.619,�k�k��,2.9,��
2020/10/13,03:50,0.643,0.905,0.581,1.107,0.780,0.379,0.653,0.621,�k,2.5,��
2020/10/13,04:00,0.643,0.906,0.578,1.108,0.779,0.380,0.652,0.620,�k,2.6,��
2020/10/13,04:10,0.643,0.906,0.580,1.107,0.781,0.379,0.652,0.618,�k�k��,2.5,��
2020/10/13,04:20,0.643,0.907,0.580,1.108,0.782,0.378,0.652,0.619,�k�k��,2.2,��
2020/10/13,04:30,0.643,0.906,0.580,1.106,0.780,0.378,0.652,0.618,�k�k��,2.3,��
2020/10/13,04:40,0.642,0.904,0.579,1.105,0.780,0.378,0.651,0.620,�k,1.7,��
2020/10/13,04:50,0.643,0.905,0.580,1.108,0.782,0.380,0.654,0.620,�k,1.5,��
2020/10/13,05:00,0.643,0.904,0.579,1.107,0.781,0.379,0.652,0.619,�k�k��,1.5,��
2020/10/13,05:10,0.642,0.902,0.579,1.108,0.779,0.379,0.653,0.618,�k�k��,1.7,��
2020/10/13,05:20,0.642,0.907,0.579,1.105,0.780,0.380,0.652,0.619,�k,2.2,��
2020/10/13,05:30,0.641,0.904,0.578,1.108,0.779,0.378,0.653,0.619,�k,2.6,��
2020/10/13,05:40,0.643,0.906,0.579,1.105,0.782,0.378,0.653,0.619,�k,2.0,��
2020/10/13,05:50,0.642,0.905,0.579,1.107,0.783,0.379,0.652,0.618,�k�k��,2.6,��
2020/10/13,06:00,0.643,0.907,0.578,1.107,0.783,0.380,0.655,0.619,�k�k��,3.1,��
2020/10/13,06:10,0.644,0.906,0.579,1.109,0.781,0.380,0.653,0.618,�k�k��,3.0,��
2020/10/13,06:20,0.643,0.907,0.580,1.108,0.783,0.379,0.656,0.619,�k�k��,2.8,��
2020/10/13,06:30,0.642,0.907,0.578,1.109,0.782,0.379,0.655,0.619,�k,2.5,��
2020/10/13,06:40,0.643,0.906,0.581,1.107,0.782,0.380,0.654,0.619,�k,3.3,��
2020/10/13,06:50,0.643,0.905,0.581,1.109,0.781,0.379,0.654,0.621,�k,3.8,��
2020/10/13,07:00,0.641,0.907,0.580,1.107,0.782,0.381,0.655,0.621,�k,4.4,��
2020/10/13,07:10,0.644,0.907,0.581,1.108,0.784,0.380,0.654,0.617,�k,4.5,��
2020/10/13,07:20,0.644,0.907,0.577,1.109,0.783,0.381,0.655,0.620,�k,4.6,��
2020/10/13,07:30,0.643,0.907,0.581,1.109,0.783,0.379,0.654,0.620,�k,4.2,��
2020/10/13,07:40,0.642,0.906,0.580,1.108,0.783,0.379,0.653,0.619,�k,4.2,��
2020/10/13,07:50,0.643,0.907,0.579,1.109,0.785,0.381,0.652,0.618,�k,3.3,��
2020/10/13,08:00,0.642,0.907,0.579,1.109,0.783,0.379,0.652,0.617,�k,4.3,��
2020/10/13,08:10,0.644,0.905,0.581,1.107,0.783,0.378,0.652,0.616,�k�k��,4.2,��
2020/10/13,08:20,0.643,0.905,0.581,1.109,0.783,0.378,0.652,0.618,�k,4.3,��
2020/10/13,08:30,0.642,0.904,0.579,1.111,0.780,0.378,0.651,0.619,�k�k��,4.6,��
2020/10/13,08:40,0.641,0.905,0.580,1.109,0.784,0.377,0.654,0.619,�k,4.7,��
2020/10/13,08:50,0.641,0.900,0.578,1.109,0.781,0.378,0.653,0.617,�k,4.3,��
2020/10/13,09:00,0.641,0.901,0.579,1.112,0.780,0.376,0.654,0.617,�k,4.0,��
2020/10/13,09:10,0.641,0.902,0.578,1.109,0.779,0.376,0.654,0.618,�k,4.8,��
2020/10/13,09:20,0.642,0.902,0.578,1.112,0.780,0.379,0.652,0.617,�k,5.4,��
2020/10/13,09:30,0.639,0.901,0.577,1.111,0.782,0.377,0.654,0.616,�k,5.3,�L
2020/10/13,09:40,0.641,0.900,0.579,1.111,0.782,0.377,0.654,0.616,�k,5.7,��
2020/10/13,09:50,0.642,0.901,0.578,1.111,0.782,0.377,0.653,0.618,�k,6.2,��
2020/10/13,10:00,0.640,0.903,0.578,1.109,0.784,0.377,0.655,0.618,�k�k��,6.2,��
2020/10/13,10:10,0.641,0.906,0.577,-,0.785,0.378,0.655,0.617,�k�k��,7.0,��
2020/10/13,10:20,0.642,0.905,0.581,-,0.784,0.377,0.654,0.617,�k�k��,6.9,��
2020/10/13,10:30,0.642,0.907,0.580,-,0.784,0.378,0.654,0.618,�k�k��,6.2,��
2020/10/13,10:40,0.644,0.905,0.582,-,0.785,0.378,0.653,0.619,�k�k��,5.5,��
2020/10/13,10:50,0.644,0.906,0.579,-,0.785,0.376,0.655,0.617,�k,6.2,��
2020/10/13,11:00,0.642,0.907,0.579,-,0.786,0.377,0.654,0.618,�k,6.7,��
2020/10/13,11:10,0.644,0.906,0.579,-,0.787,0.377,0.654,0.618,�k,6.1,��
2020/10/13,11:20,0.645,0.908,0.581,-,0.786,0.375,0.655,0.617,�k,6.2,��
2020/10/13,11:30,0.643,0.908,0.582,-,0.788,0.376,0.654,0.617,�k�k��,5.4,��
2020/10/13,11:40,0.644,0.909,0.581,-,0.789,0.376,0.655,0.619,�k�k��,3.7,��
2020/10/13,11:50,0.645,0.911,0.583,-,0.787,0.375,0.655,0.619,�k�k��,5.1,��
2020/10/13,12:00,0.646,0.912,0.582,-,0.788,0.376,0.655,0.620,�k�k��,5.0,��
2020/10/13,12:10,0.646,0.910,0.580,-,0.790,0.375,0.656,0.619,�k,4.5,��
2020/10/13,12:20,0.645,0.914,0.581,-,0.790,0.376,0.656,0.619,�k,5.4,��
2020/10/13,12:30,0.646,0.913,0.582,-,0.788,0.375,0.655,0.619,�k�k��,4.8,��
2020/10/13,12:40,0.646,0.915,0.583,-,0.790,0.377,0.656,0.619,�k,5.3,��
2020/10/13,12:50,0.647,0.913,0.582,-,0.791,0.377,0.658,0.619,�k�k��,4.7,��
2020/10/13,13:00,0.646,0.911,0.584,-,0.790,0.376,0.658,0.620,�k�k��,4.8,��
2020/10/13,13:10,0.647,0.910,0.582,1.112,0.792,0.375,0.656,0.621,�k�k��,3.7,��
2020/10/13,13:20,0.646,0.913,0.581,1.114,0.791,0.377,0.657,0.620,�k�k��,4.0,��
2020/10/13,13:30,0.646,0.910,0.584,1.116,0.791,0.376,0.656,0.620,�k�k��,4.0,��
2020/10/13,13:40,0.648,0.914,0.582,1.116,0.792,0.376,0.656,0.618,�k�k��,4.2,��
2020/10/13,13:50,0.649,0.914,0.584,1.117,0.791,0.378,0.656,0.620,�k�k��,4.0,��
2020/10/13,14:00,0.647,0.913,0.583,1.117,0.792,0.377,0.656,0.619,�k�k��,3.6,��
2020/10/13,14:10,0.647,0.915,0.583,1.118,0.790,0.377,0.658,0.619,�k,2.8,��
2020/10/13,14:20,0.648,0.915,0.583,1.116,0.793,0.376,0.657,0.620,�k�k��,3.1,��
2020/10/13,14:30,0.648,0.913,0.583,1.116,0.795,0.377,0.659,0.619,�k,4.5,��
2020/10/13,14:40,0.648,0.914,0.584,1.118,0.794,0.379,0.657,0.619,�k�k��,5.3,��
2020/10/13,14:50,0.648,0.915,0.584,1.115,0.795,0.376,0.657,0.620,�k�k��,3.3,��
2020/10/13,15:00,0.648,0.914,0.585,1.116,0.791,0.378,0.657,0.620,�k�k��,3.9,��
2020/10/13,15:10,0.646,0.917,0.584,1.117,0.793,0.378,0.657,0.621,�k�k��,2.5,��
2020/10/13,15:20,0.648,0.915,0.581,1.116,0.793,0.377,0.657,0.620,�k��,3.7,��
2020/10/13,15:30,0.647,0.913,0.582,1.117,0.793,0.376,0.657,0.619,�k��,3.3,��
2020/10/13,15:40,0.648,0.916,0.583,1.119,0.794,0.379,0.657,0.620,�k��,3.6,��
2020/10/13,15:50,0.647,0.917,0.582,1.120,0.793,0.380,0.659,0.619,�k�k��,4.2,��
2020/10/13,16:00,0.647,0.916,0.580,1.119,0.793,0.380,0.658,0.621,�k�k��,5.8,��
2020/10/13,16:10,0.647,0.918,0.583,1.119,0.796,0.380,0.656,0.621,�k�k��,6.0,��
2020/10/13,16:20,0.647,0.920,0.582,1.119,0.796,0.378,0.657,0.621,�k��,6.0,��
2020/10/13,16:30,0.647,0.919,0.583,1.118,0.795,0.379,0.656,0.621,�k�k��,5.6,��
2020/10/13,16:40,0.648,0.920,0.584,1.120,0.793,0.378,0.657,0.622,�k�k��,6.8,��
2020/10/13,16:50,0.649,0.920,0.584,1.123,0.795,0.379,0.657,0.621,�k�k��,6.8,��
2020/10/13,17:00,0.648,0.920,0.585,1.121,0.797,0.380,0.658,0.623,�k�k��,7.1,��
2020/10/13,17:10,0.649,0.921,0.585,1.121,0.795,0.379,0.656,0.621,�k��,6.7,��
2020/10/13,17:20,0.649,0.922,0.584,1.121,0.798,0.379,0.657,0.622,�k�k��,5.3,��
2020/10/13,17:30,0.649,0.923,0.586,1.122,0.798,0.379,0.656,0.623,�k�k��,5.4,��
2020/10/13,17:40,0.649,0.924,0.586,1.120,0.797,0.379,0.656,0.623,�k�k��,4.6,��
2020/10/13,17:50,0.649,0.924,0.586,1.122,0.799,0.378,0.656,0.625,�k��,4.3,��
2020/10/13,18:00,0.650,0.921,0.586,1.123,0.797,0.380,0.657,0.622,�k��,4.4,��
2020/10/13,18:10,0.651,0.922,0.586,1.124,0.798,0.379,0.655,0.623,�k��,4.6,��
2020/10/13,18:20,0.652,0.924,0.588,1.122,0.798,0.379,0.658,0.623,�k��,5.5,��
2020/10/13,18:30,0.651,0.922,0.587,1.120,0.798,0.380,0.658,0.624,�k��,6.0,��
2020/10/13,18:40,0.650,0.923,0.587,1.119,0.799,0.381,0.659,0.623,�k��,4.8,��
2020/10/13,18:50,0.651,0.922,0.588,1.122,0.798,0.380,0.657,0.623,�k��,3.9,��
2020/10/13,19:00,0.653,0.924,0.585,1.122,0.799,0.380,0.658,0.623,�k��,4.4,��
2020/10/13,19:10,0.650,0.924,0.588,1.121,0.799,0.380,0.658,0.624,�k��,3.0,��
2020/10/13,19:20,0.649,0.921,0.587,1.123,0.800,0.379,0.659,0.626,�k��,3.2,��
2020/10/13,19:30,0.650,0.924,0.587,1.124,0.798,0.380,0.659,0.624,�k��,3.8,��
2020/10/13,19:40,0.651,0.924,0.588,1.124,0.797,0.380,0.659,0.624,�k��,5.3,��
2020/10/13,19:50,0.650,0.923,0.586,1.124,0.798,0.380,0.659,0.623,�k��,5.5,��
2020/10/13,20:00,0.650,0.923,0.587,1.123,0.799,0.380,0.659,0.625,�k��,5.5,��
2020/10/13,20:10,0.649,0.922,0.588,1.121,0.799,0.379,0.658,0.625,�k��,5.1,��
2020/10/13,20:20,0.649,0.926,0.587,1.122,0.799,0.381,0.658,0.626,�k��,5.5,��
2020/10/13,20:30,0.651,0.923,0.586,1.124,0.800,0.381,0.657,0.625,�k��,3.5,��
2020/10/13,20:40,0.650,0.924,0.586,1.123,0.801,0.378,0.659,0.624,�k��,3.9,��
2020/10/13,20:50,0.650,0.921,0.587,1.121,0.799,0.380,0.659,0.624,�k��,4.0,��
2020/10/13,21:00,0.650,0.924,0.587,1.123,0.800,0.381,0.659,0.623,�k��,4.1,��
2020/10/13,21:10,0.650,0.925,0.588,1.122,0.799,0.380,0.658,0.623,�k��,3.2,��
2020/10/13,21:20,0.649,0.922,0.587,1.123,0.799,0.379,0.657,0.624,�k��,4.6,��
2020/10/13,21:30,0.651,0.924,0.589,1.124,0.800,0.381,0.658,0.623,�k��,5.2,��
2020/10/13,21:40,0.650,0.924,0.587,1.124,0.799,0.380,0.657,0.623,�k��,4.8,��
2020/10/13,21:50,0.649,0.924,0.589,1.124,0.801,0.380,0.657,0.622,�k��,5.0,��
2020/10/13,22:00,0.650,0.925,0.588,1.124,0.799,0.380,0.658,0.623,�k��,6.6,��
2020/10/13,22:10,0.649,0.926,0.588,1.124,0.800,0.380,0.659,0.625,�k��,6.4,��
2020/10/13,22:20,0.650,0.923,0.586,1.124,0.798,0.379,0.658,0.625,�k��,6.9,��
2020/10/13,22:30,0.650,0.925,0.589,1.126,0.801,0.380,0.659,0.624,�k��,5.7,��
2020/10/13,22:40,0.649,0.924,0.588,1.126,0.800,0.381,0.658,0.624,�k��,6.0,��
2020/10/13,22:50,0.650,0.926,0.587,1.125,0.800,0.380,0.659,0.625,�k��,6.7,��
2020/10/13,23:00,0.650,0.924,0.589,1.124,0.801,0.381,0.659,0.625,�k��,6.0,��
2020/10/13,23:10,0.652,0.924,0.588,1.125,0.800,0.381,0.657,0.625,�k��,5.8,��
2020/10/13,23:20,0.651,0.923,0.587,1.125,0.799,0.380,0.657,0.623,�k��,5.8,��
2020/10/13,23:30,0.649,0.923,0.588,1.125,0.800,0.381,0.659,0.626,�k��,4.6,��
2020/10/13,23:40,0.650,0.923,0.587,1.125,0.799,0.379,0.660,0.625,�k��,3.5,��
2020/10/13,23:50,0.651,0.926,0.588,1.126,0.800,0.379,0.658,0.625,�k��,3.8,��
